[[{"header":{"parameterUnit":"m.s-1","parameterCategory":1,"la1":30.2991,"la2":30.254,"lo1":-89.0895,"lo2":-89.0444,"dy":0.0017,"dx":0.0017,"nx":28,"ny":28,"refTime":"2024-12-15T03:00:00:Z","depth":0,"parameterNumber":2,"parameterNumberName":"U-component_of_WINDS"},"data":[0,0,0,0,0,0,0,0,0,0,0,0,0,0,0,0,0,0,0,0,0,0,0,0,0,0,0,0,0,0,0,0,0,0,0,0,0,0,0,0,0,0,0,0,0,0,0,0,0,0,0,0,0,0,0,0,0,0,-3.542,-3.5419,0,-3.5255,-3.5254,-3.5252,-3.5094,-3.5092,-3.509,-3.5088,-3.4917,-3.4914,-3.4912,0,0,0,0,0,0,0,0,0,0,0,0,0,-3.5598,-3.5595,-3.5421,-3.5419,-3.5416,-3.5256,-3.5253,-3.5251,-3.5094,-3.5092,-3.5089,-3.5087,-3.4918,-3.4915,-3.4911,0,0,0,0,0,0,0,0,0,0,0,0,0,-3.5486,-3.5595,-3.5421,-3.5319,-3.5308,-3.5256,-3.5253,-3.5251,-3.5095,-3.5092,-3.5089,-3.5086,-3.4919,-3.4915,-3.4911,-3.4946,0,0,-3.4899,-3.4897,0,0,0,0,0,0,0,0,-3.5492,-3.5479,-3.5336,-3.5326,-3.5313,-3.5192,-3.5253,-3.5149,-3.5095,-3.5176,-3.5088,-3.5084,-3.5011,-3.4999,-3.4975,-3.4938,-3.4931,-3.4898,-3.4896,-3.4894,-3.4893,0,0,0,0,0,0,0,-3.55,-3.5486,-3.5355,-3.5334,-3.532,-3.5281,-3.5261,-3.5233,-3.5112,-3.5168,-3.5156,-3.5139,-3.5004,-3.4979,-3.4969,-3.4928,-3.4898,-3.4895,-3.4892,-3.4891,-3.4912,-3.4915,0,0,0,0,0,0,-3.5524,-3.5493,-3.536,-3.535,-3.5397,-3.528,-3.5258,-3.5234,-3.5112,-3.509,-3.5142,-3.5133,-3.4987,-3.4974,-3.4963,-3.4995,-3.4894,-3.489,-3.4888,-3.4909,-3.4913,-3.4916,0,0,0,0,0,0,-3.5528,-3.5514,-3.5367,-3.5418,-3.5397,-3.528,-3.5254,-3.5232,-3.5207,-3.5092,-3.5069,-3.5138,-3.4984,-3.4968,-3.4951,-3.4987,-3.4889,-3.4885,-3.4906,-3.491,-3.4914,-3.5061,0,0,0,0,0,0,-3.5534,-3.5516,-3.5529,-3.542,-3.5395,-3.5359,-3.5256,-3.5231,-3.5201,-3.5187,-3.5083,-3.5062,-3.4981,-3.4958,-3.4948,-3.498,-3.4882,-3.4902,-3.4908,-3.4913,-3.5052,-3.507,-3.5085,0,0,0,0,0,-3.5541,-3.5576,-3.553,-3.5515,-3.5408,-3.5362,-3.5347,-3.5253,-3.5204,-3.5215,-3.5142,-3.5066,-3.4986,-3.4958,-3.4944,-3.4976,-3.4899,-3.4906,-3.4913,-3.5045,-3.5066,-3.5084,0,0,0,0,0,0,-3.569,-3.556,-3.5507,-3.5508,-3.5448,-3.5335,-3.5346,-3.5279,-3.5229,-3.5218,-3.5103,-3.5081,-3.5077,-3.5025,-3.4996,-3.5003,-3.4932,-3.4936,-3.5037,-3.5056,-3.5073,-3.5084,-3.4878,0,0,0,0,0,-3.5724,-3.5698,-3.5585,-3.5597,-3.5569,-3.5464,-3.544,-3.5373,-3.5305,-3.5278,-3.5203,-3.5139,-3.5099,-3.5075,-3.5032,-3.5045,-3.5019,-3.506,-3.5076,-3.509,-3.5094,-3.5096,-3.5113,-3.4938,-3.4938,-3.4938,0,0,-3.5792,-3.5717,-3.5708,-3.5625,-3.557,-3.5545,-3.5443,-3.5421,-3.5401,-3.5274,-3.5253,-3.5197,-3.5118,-3.5116,-3.5111,-3.5072,-3.5138,-3.5099,-3.5111,-3.5107,-3.5105,-3.5122,-3.5136,-3.4943,-3.4942,-3.4941,0,0,-3.5902,-3.5845,-3.5847,-3.5795,-3.5713,-3.5643,-3.5645,-3.5543,-3.55,-3.5478,-3.5383,-3.5357,-3.5292,-3.5239,-3.5204,-3.5298,-3.5225,-3.5287,-3.5371,-3.5374,-3.5388,-3.5399,-3.5431,-3.5444,-3.5292,-3.5293,-3.5293,0,-3.5997,-3.5956,-3.5857,-3.5841,-3.5807,-3.5694,-3.5695,-3.5649,-3.5558,-3.5537,-3.5495,-3.541,-3.5349,-3.5333,-3.5356,-3.5332,-3.5328,-3.5297,-3.5394,-3.5405,-3.5414,-3.5443,-3.5456,-3.53,-3.53,-3.5299,-3.5298,0,-3.6076,-3.6049,-3.6061,-3.5977,-3.5945,-3.5938,-3.5838,-3.5817,-3.5754,-3.5688,-3.5667,-3.559,-3.553,-3.5521,-3.5459,-3.5496,-3.5475,-3.5416,-3.5341,-3.544,-3.5465,-3.5476,-3.5312,-3.5309,-3.5307,-3.5305,0,0,-3.6273,-3.6136,-3.6142,-3.6102,-3.6005,-3.5982,-3.5971,-3.5912,-3.5896,-3.5838,-3.5824,-3.5772,-3.5717,-3.5677,-3.5608,-3.5611,-3.5689,-3.5551,-3.5547,-3.5578,-3.5724,-3.5768,-3.5783,-3.5642,-3.5644,-3.5645,-3.573,0,-3.6365,-3.6338,-3.625,-3.6248,-3.6222,-3.6115,-3.6105,-3.6044,-3.5983,-3.5951,-3.5883,-3.5848,-3.5778,-3.5754,-3.5752,-3.568,-3.5716,-3.5673,-3.5626,-3.5626,-3.5647,-3.5796,-3.5842,-3.5926,-3.574,-3.5741,-3.5742,0,-3.6469,-3.6419,-3.6416,-3.632,-3.6306,-3.6298,-3.6238,-3.621,-3.6138,-3.6094,-3.6051,-3.5975,-3.5956,-3.5889,-3.586,-3.5833,-3.5809,-3.5771,-3.5772,-3.5762,-3.5689,-3.5788,-3.595,-3.5963,-3.5757,-3.5756,-3.5755,0,-3.6612,-3.6543,-3.6532,-3.6502,-3.6391,-3.6388,-3.6341,-3.6267,-3.6238,-3.6185,-3.6165,-3.6111,-3.6081,-3.6041,-3.5952,-3.5912,-3.5934,-3.5859,-3.5895,-3.5897,-3.5902,-3.5902,-3.6061,-3.5891,-3.5891,-3.5891,-3.589,0,-3.6723,-3.6725,-3.6595,-3.6588,-3.6587,-3.6486,-3.6487,-3.643,-3.6366,-3.6345,-3.625,-3.6233,-3.6117,-3.6087,-3.6017,-3.6004,-3.5991,-3.5954,-3.5935,-3.5961,-3.5966,-3.5942,-3.5933,-3.5894,-3.5893,-3.5893,-3.5892,0,-3.688,-3.6794,-3.6774,-3.6672,-3.6646,-3.665,-3.6561,-3.655,-3.6484,-3.646,-3.6448,-3.6345,-3.6304,-3.6212,-3.6146,-3.6099,-3.6103,-3.607,-3.6127,-3.6115,-3.6155,-3.6152,-3.6302,-3.6315,-3.614,-3.6142,-3.6143,0,-3.6956,-3.6955,-3.6853,-3.6833,-3.679,-3.676,-3.673,-3.6631,-3.6604,-3.6524,-3.6522,-3.6474,-3.643,-3.637,-3.6288,-3.6238,-3.6202,-3.6258,-3.6193,-3.622,-3.62,-3.6201,-3.6199,-3.6271,-3.6274,-3.6276,-3.6277,0,-3.7099,-3.7056,-3.7018,-3.6965,-3.6932,-3.6885,-3.6833,-3.6822,-3.6711,-3.6685,-3.6643,-3.6609,-3.6543,-3.6496,-3.6433,-3.6383,-3.6312,-3.6299,-3.6304,-3.633,-3.6362,-3.6343,-3.6164,-3.6295,-3.6293,-3.6292,-3.6291,-3.629,-3.7215,-3.721,-3.7137,-3.7098,-3.7049,-3.7002,-3.6987,-3.6921,-3.6884,-3.6823,-3.6767,-3.673,-3.6659,-3.6567,-3.6523,-3.6492,-3.6456,-3.6464,-3.6466,-3.6469,-3.648,-3.637,-3.6481,-3.648,-3.648,-3.6479,-3.6479,0,-3.7352,-3.7301,-3.7266,-3.7196,-3.7165,-3.7103,-3.7042,-3.702,-3.6989,-3.693,-3.6889,-3.6841,-3.6795,-3.6711,-3.6658,-3.6649,-3.6615,-3.6639,-3.6637,-3.6627,-3.6516,-3.6516,-3.6667,-3.6667,-3.6667,-3.6667,-3.6667,-3.6667,-3.7419,-3.7406,-3.7356,-3.7317,-3.7265,-3.7229,-3.72,-3.7156,-3.7108,-3.7059,-3.7021,-3.6968,-3.6898,-3.6839,-3.6795,-3.6771,-3.6755,-3.6789,-3.6755,-3.6652,-3.6635,-3.6618,-3.6617,-3.6787,-3.6787,-3.6868,-3.6869,-3.6869]},{"header":{"parameterUnit":"m.s-1","parameterCategory":1,"la1":30.2991,"la2":30.254,"lo1":-89.0895,"lo2":-89.0444,"dy":0.0017,"dx":0.0017,"nx":28,"ny":28,"refTime":"2024-12-15T03:00:00:Z","depth":0,"parameterNumber":3,"parameterNumberName":"V-component_of_WINDS"},"data":[0,0,0,0,0,0,0,0,0,0,0,0,0,0,0,0,0,0,0,0,0,0,0,0,0,0,0,0,0,0,0,0,0,0,0,0,0,0,0,0,0,0,0,0,0,0,0,0,0,0,0,0,0,0,0,0,0,0,0.3325,0.3326,0,0.3357,0.3357,0.3358,0.3417,0.3418,0.3419,0.342,0.3448,0.3448,0.3448,0,0,0,0,0,0,0,0,0,0,0,0,0,0.3314,0.3314,0.3325,0.3326,0.3326,0.3357,0.3357,0.3358,0.3417,0.3418,0.3419,0.3421,0.3448,0.3448,0.3448,0,0,0,0,0,0,0,0,0,0,0,0,0,0.333,0.3314,0.3325,0.3359,0.3363,0.3357,0.3357,0.3358,0.3416,0.3418,0.342,0.3421,0.3449,0.3448,0.3448,0.341,0,0,0.3446,0.3446,0,0,0,0,0,0,0,0,0.3329,0.333,0.3354,0.3357,0.3361,0.3385,0.3364,0.3375,0.3416,0.3396,0.342,0.3422,0.3425,0.3427,0.3429,0.3411,0.3412,0.3446,0.3446,0.3446,0.3445,0,0,0,0,0,0,0,0.3327,0.3329,0.3338,0.3354,0.3358,0.3372,0.3377,0.3366,0.34,0.3398,0.3402,0.3405,0.3428,0.3429,0.343,0.3413,0.3446,0.3446,0.3445,0.3445,0.3368,0.3366,0,0,0,0,0,0,0.3322,0.3328,0.3337,0.3339,0.3349,0.3371,0.3376,0.3375,0.3401,0.3406,0.3404,0.3408,0.3429,0.3431,0.3431,0.339,0.3446,0.3445,0.3445,0.337,0.3367,0.3366,0,0,0,0,0,0,0.3321,0.3322,0.3336,0.3334,0.3337,0.337,0.3368,0.3375,0.3377,0.3405,0.3411,0.3399,0.3431,0.3432,0.3416,0.3392,0.3445,0.3444,0.3372,0.3369,0.3366,0.3307,0,0,0,0,0,0,0.3321,0.3322,0.3308,0.3334,0.3337,0.332,0.3367,0.3374,0.3376,0.3382,0.3403,0.3408,0.3432,0.3416,0.3415,0.3392,0.3444,0.3374,0.337,0.3367,0.3311,0.3303,0.3295,0,0,0,0,0,0.332,0.3288,0.3307,0.3308,0.3321,0.3318,0.332,0.335,0.3374,0.3361,0.3379,0.3407,0.3395,0.3414,0.3413,0.339,0.3375,0.3371,0.3368,0.3315,0.3304,0.3296,0,0,0,0,0,0,0.3257,0.3292,0.3313,0.3289,0.33,0.3328,0.3312,0.3338,0.3341,0.3346,0.3382,0.3386,0.3365,0.3376,0.3396,0.3356,0.339,0.3385,0.335,0.334,0.3332,0.333,0.3444,0,0,0,0,0,0.3241,0.3237,0.3267,0.3243,0.3248,0.3279,0.3279,0.3301,0.3314,0.3318,0.3336,0.3346,0.3345,0.3343,0.3343,0.3313,0.3319,0.3297,0.3289,0.3283,0.3278,0.3265,0.3256,0.3353,0.3353,0.3353,0,0,0.3206,0.3225,0.322,0.3231,0.3242,0.3237,0.3282,0.3274,0.327,0.3317,0.3303,0.3316,0.333,0.3307,0.3298,0.3316,0.3253,0.3278,0.3272,0.3272,0.326,0.3251,0.3243,0.335,0.335,0.3351,0,0,0.3141,0.3154,0.3136,0.3148,0.3165,0.3187,0.3182,0.3207,0.3218,0.3205,0.324,0.3236,0.3233,0.3242,0.3246,0.3186,0.3213,0.3185,0.3144,0.3131,0.3123,0.3116,0.3096,0.3089,0.3181,0.3181,0.3181,0,0.3095,0.3089,0.3124,0.3114,0.3119,0.3162,0.3145,0.3153,0.3169,0.3171,0.3191,0.319,0.3202,0.3183,0.3168,0.317,0.3166,0.3183,0.3122,0.3115,0.311,0.3091,0.3083,0.3178,0.3178,0.3178,0.3179,0,0.3033,0.3029,0.3012,0.3029,0.3031,0.3017,0.305,0.3048,0.307,0.3089,0.3077,0.3093,0.3099,0.3096,0.3116,0.308,0.3091,0.3115,0.315,0.3097,0.308,0.3073,0.3173,0.3174,0.3175,0.3176,0,0,0.2927,0.2965,0.2959,0.2968,0.2992,0.2988,0.2977,0.2984,0.2983,0.2992,0.2984,0.2981,0.3005,0.301,0.3033,0.3021,0.2974,0.3047,0.3048,0.3034,0.2937,0.2918,0.2909,0.2992,0.2991,0.299,0.2936,0,0.2867,0.2852,0.2883,0.286,0.2857,0.2899,0.289,0.2903,0.2921,0.292,0.294,0.2938,0.2969,0.2972,0.2963,0.2982,0.2955,0.2986,0.2985,0.2984,0.2981,0.29,0.2881,0.2829,0.2929,0.2928,0.2927,0,0.2795,0.2804,0.2781,0.2808,0.2808,0.2799,0.2809,0.2808,0.2824,0.2838,0.2845,0.2872,0.2863,0.2897,0.2885,0.2905,0.2906,0.2916,0.2915,0.2916,0.2953,0.29,0.2813,0.2805,0.2917,0.2918,0.2919,0,0.2722,0.2728,0.2716,0.2722,0.2753,0.2746,0.2758,0.2776,0.2779,0.2788,0.279,0.2796,0.28,0.2804,0.2833,0.2854,0.2818,0.2853,0.2829,0.2828,0.282,0.282,0.2732,0.2819,0.2819,0.2819,0.2819,0,0.2652,0.2637,0.2684,0.2676,0.266,0.2696,0.2679,0.2696,0.2712,0.2708,0.2744,0.274,0.2777,0.2777,0.2799,0.2786,0.2787,0.2798,0.2804,0.2795,0.2794,0.2797,0.2801,0.2817,0.2818,0.2818,0.2818,0,0.2568,0.2598,0.2588,0.2619,0.2627,0.2614,0.264,0.2634,0.2655,0.265,0.2651,0.2683,0.2685,0.2714,0.272,0.2736,0.2714,0.2727,0.2709,0.2714,0.2688,0.2691,0.2599,0.259,0.2682,0.2681,0.268,0,0.2522,0.2511,0.2542,0.2543,0.2554,0.2555,0.2559,0.2595,0.2597,0.2616,0.2608,0.2613,0.2619,0.2619,0.2643,0.2648,0.2662,0.263,0.2663,0.2655,0.2663,0.2663,0.2663,0.2622,0.2621,0.262,0.2619,0,0.2437,0.2453,0.2458,0.2469,0.2474,0.2483,0.2495,0.2493,0.2533,0.2534,0.2537,0.2542,0.255,0.2555,0.2565,0.2577,0.2605,0.2609,0.2604,0.2595,0.2586,0.2592,0.2691,0.2611,0.2612,0.2612,0.2613,0.2613,0.2371,0.2364,0.2386,0.2391,0.2404,0.2415,0.2412,0.2433,0.2437,0.2448,0.2469,0.2469,0.2487,0.2504,0.2514,0.2515,0.2531,0.2523,0.2522,0.2519,0.2515,0.2585,0.2517,0.2517,0.2517,0.2517,0.2518,0,0.2289,0.2306,0.231,0.2327,0.2331,0.2358,0.2374,0.2375,0.2375,0.239,0.2396,0.24,0.2405,0.243,0.2438,0.2434,0.2447,0.2435,0.2436,0.2438,0.2499,0.2503,0.2424,0.2424,0.2424,0.2424,0.2424,0.2424,0.2247,0.2238,0.2257,0.2255,0.2272,0.2274,0.228,0.2291,0.2303,0.2307,0.2312,0.2329,0.2348,0.2358,0.2364,0.2372,0.2373,0.2357,0.2368,0.2425,0.2434,0.2442,0.2446,0.2357,0.2357,0.2308,0.2307,0.2307]}]]